Simultaneous Nadir Overpasses (SNOs) Predictions

Prediction of SNOs between METOP-A and NOAA-19 Satellite Orbit:

Table of predicted SNOs for the next 14.0 days since TLE Epoch: 12/21/2012
Index Date (METOP-A) Time (METOP-A) Lat,Lon (METOP-A) SZA (METOP-A ) Date (NOAA-19) Time (NOAA-19) Lat,Lon (NOAA-19) SZA (NOAA-19 ) Distance(km) Time Diff (sec)
1 12/30/2012 14:24:46 73.79, -42.34 96.92 12/30/2012 14:23:37 73.77, -44.49 96.99 66.78 69
2 12/30/2012 15:15:37 -73.32, 123.91 83.52 12/30/2012 15:14:24 -73.31, 123.87 83.52 1.78 73
3 12/30/2012 16:06:18 73.27, -68.88 96.43 12/30/2012 16:05:32 73.29, -68.86 96.46 2.80 46
4 12/30/2012 16:57:00 -73.25, 98.41 83.60 12/30/2012 16:56:28 -73.27, 98.45 83.57 2.89 32
5 12/30/2012 17:47:40 73.24, -94.27 96.40 12/30/2012 17:47:36 73.25, -94.29 96.41 1.04 4
6 12/30/2012 18:38:22 -73.22, 73.01 83.62 12/30/2012 18:38:32 -73.23, 73.02 83.62 0.86 10
7 12/30/2012 19:29:02 73.21,-119.67 96.37 12/30/2012 19:29:40 73.21,-119.71 96.36 1.64 38
8 12/30/2012 20:19:44 -73.20, 47.62 83.65 12/30/2012 20:20:36 -73.19, 47.59 83.67 1.21 52
9 12/30/2012 21:10:28 72.99,-145.50 96.16 12/30/2012 21:11:41 73.02,-144.81 96.15 22.78 73




NCC Satellite Simultaneous Nadir Overpasses (SNOs) Prediction Service
